AirNav   Pilot Hours Calculator
 
 1414 users online  

68MO Southeast Health Center of Stoddard County Heliport
Dexter, Missouri, USA

GOING TO DEXTER?


FAA INFORMATION EFFECTIVE 22 APRIL 2021

Location

FAA Identifier: 68MO
Lat/Long: 36-48-26.5300N 089-58-02.6500W
36-48.442167N 089-58.044167W
36.8073694,-89.9674028
(estimated)
Elevation: 420 ft. / 128 m (estimated)
Variation: 02E (1985)
Time zone: UTC -5 (UTC -6 during Standard Time)
Zip code: 63841

Heliport Operations

Heliport use: Private use, MEDICAL.
Activation date: 04/1982
Control tower: no
ARTCC: MEMPHIS CENTER
FSS: SAINT LOUIS FLIGHT SERVICE STATION
Attendance: CONTINUOUS
Wind indicator: no
Segmented circle: no

Heliport Communications

WX AWOS-3PT at MAW (13 nm S): 119.825 (573-276-9970)
WX ASOS at POF (17 nm W): 124.225 (573-776-1686)

Nearby radio navigation aids

VOR radial/distance  VOR name  Freq  Var
MAWr347/15.4MALDEN VORTAC111.2003E

 
NDB name  Hdg/Dist  Freq  Var  ID
CAIRO247/38.839700ECIR -.-. .. .-.

Heliport Services

Runway Information

Helipad H1

Dimensions: 40 x 40 ft. / 12 x 12 m
Surface: asphalt
Latitude: 36-48.442167N
Longitude: 089-58.044167W
Elevation: 420.0 ft.
Traffic pattern: leftleft

Heliport Ownership and Management from official FAA records

Ownership: Privately-owned
Owner: MISSOURI SOUTHEN HEALTHCARE
1200 N. ONE MILE ROAD
DEXTER, MO 63841
Phone 573-624-5566
Manager: GARY MARTIN
1200 N. ONE MILE ROAD
DEXTER, MO 63841
Phone 573-614-1915

Additional Remarks

A52-H1 160' TWR 200' SW.
FOR CD CTC MEMPHIS ARTCC AT 901-368-8453/8449.

Instrument Procedures

There are no published instrument procedures at 68MO.

Some nearby airports with instrument procedures:

KDXE - Dexter Municipal Airport (2 nm SE)
KMAW - Malden Regional Airport (13 nm S)
KPOF - Poplar Bluff Regional Business Airport (17 nm W)
KSIK - Sikeston Memorial Municipal Airport (20 nm E)
M85 - Gideon Memorial Airport (22 nm S)
 
Loc | Ops | Rwys | IFR | FBO | Links
Com | Nav | Svcs | Stats | Notes
Area around 68MO (Southeast Health Center of Stoddard County Heliport)
 
Road maps at: MapQuest Bing Google
 
Aerial photo
No photo
 
Sectional chart

 
Airport distance calculator
Flying to Southeast Health Center of Stoddard County Heliport? Find the distance to fly.

From to 68MO

Sunrise and sunset
Times for 22-Apr-2021
 Local
(UTC-5)
 Zulu
(UTC)
Morning civil twilight05:5010:50
Sunrise06:1811:18
Sunset19:3900:39
Evening civil twilight20:0601:06

Current date and time
Zulu (UTC)  22-Apr-2021 14:05:43
Local (UTC-5)  22-Apr-2021 09:05:43
 
METAR
KMAW 
13nm S 
221355Z AUTO 35006KT 10SM CLR 08/M01 A3029 RMK AO2
KPOF 
17nm W 
221353Z AUTO 01007KT 10SM CLR 08/M02 A3028 RMK AO2 SLP255 T00781022
KSIK 
20nm E 
221355Z AUTO 00000KT 10SM CLR 07/01 A3027 RMK AO2 TSNO
TAF
KCGI 
31nm NE 
221120Z 2212/2312 VRB03KT P6SM SCT180 FM221600 VRB04KT P6SM SKC FM230100 VRB03KT P6SM BKN250 FM230500 VRB03KT P6SM SCT050 BKN100 FM230900 VRB03KT P6SM VCSH SCT025 BKN050
NOTAMs
Click for the latest NOTAMs
NOTAMs are issued by the DoD/FAA and will open in a separate window not controlled by AirNav.

 

 
 

Would you like to see your business listed on this page?

 If your business provides an interesting product or service to pilots, flight crews, aircraft, or users of the Southeast Health Center of Stoddard County Heliport, you should consider listing it here.  To start the listing process, click on the button below
 
Add a business
 

Other Pages about Southeast Health Center of Stoddard County Heliport

Update a link
 
Copyright © AirNav, LLC. All rights reserved. Privacy Policy  Contact